Pagrindinis puslapis
METAR-TAF:

METAR-TAF

Oro uostai :

Nueva Locha, Ekvadoras

platuma: 00-05-33N, ilguma: 076-52-10W, Aukštis: 299 m

Dabartinis oras

Ataskaita buvo paskelbta 51 minutes, ne 12:00 UTC
Vėjas 5 kt iš Vakarų
Temperatūra 22°C
Drėgmė 100%
Slėgis 1013 hPa
Matomumas 10 km arba daugiau
Išsisklaidę debesys ne aukštis 2000 ft
Su prošvaistėmis ne aukštis 10000 ft
Liūtis kaimynystėje

METAR: SENL 031200Z 27005KT 9999 VCSH SCT020 BKN100 22/22 Q1013 A2992

Laikas: 07:51 (12:51 UTC)


TAF: trūkstamas

Orai ataskaitas ir orų prognozės (METAR, TAF).

turimą stotys yra geltonos ir raudonos taškus žemėlapyje.

Perkelti pele per norėdami pamatyti stoties vardą.

Tada spustelėkite, norėdami matyti oro stebėjimo ir prognozės.

Norėdami pakeisti žemėlapį: spustelėkite ant žalios mygtukų su juodo kryžiaus žemyn,; žalią mygtuką su brūkšneliu, jei norite nutolinti; arba žalių rodyklių gretimoms žemėlapius.


METAR-TAF: